Regional Weather Roundup
Issued by NWS

Home | Current Version | Previous Version | Graphics & Text | Print | Product List | Glossary On
Versions: 1 2 3 4 5 6 7 8 9 10 11 12 13 14 15 16 17 18 19 20 21 22 23 24 25 26 27 28 29 30 31 32 33 34 35 36 37 38 39 40 41 42 43 44 45 46 47 48 49 50
000
ASUS43 KBIS 061702
RWRND

NORTH DAKOTA REGIONAL WEATHER ROUNDUP
NATIONAL WEATHER SERVICE BISMARCK ND
1200 PM CDT MON JUL 06 2015

NOTE: "FAIR" INDICATES FEW OR NO CLOUDS BELOW 12,000 FEET WITH NO
SIGNIFICANT WEATHER AND/OR OBSTRUCTIONS TO VISIBILITY.


NDZ001>003-009>011-017-061800-
NORTHWEST NORTH DAKOTA

CITY           SKY/WX    TMP DP  RH WIND       PRES   REMARKS
WILLISTON      PTSUNNY   66  51  58 N10       30.20S HAZE
MINOT          CLOUDY    61  51  70 N7        30.17R HAZE
$$

NDZ018>021-031>035-040>046-061800-
SOUTHWEST NORTH DAKOTA

CITY           SKY/WX    TMP DP  RH WIND       PRES   REMARKS
BISMARCK       CLOUDY    68  52  56 NW12      30.16R HAZE
DICKINSON      PTSUNNY   66  50  56 NW9       30.18S
GARRISON         N/A     64  53  67 N5        30.16R
HETTINGER ARPT CLOUDY    66  50  56 N10       30.21S
$$

NDZ004>008-012>016-024-026-027-054-061800-
NORTHEAST NORTH DAKOTA

CITY           SKY/WX    TMP DP  RH WIND       PRES   REMARKS
GRAND FORKS    PTSUNNY   62  48  60 N17G23    30.10S
GRND FRKS AFB  MOSUNNY   62  48  59 N17       30.11R
DEVILS LAKE    PTSUNNY   61  46  59 NW14G20   30.13S
$$

NDZ022-023-025-028>030-036>039-047>053-061800-
SOUTHEAST NORTH DAKOTA

CITY           SKY/WX    TMP DP  RH WIND       PRES   REMARKS
FARGO          PTSUNNY   65  48  54 N21       30.07R
JAMESTOWN      PTSUNNY   64  53  67 N15       30.12R
$$



USA.gov is the U.S. government's official web portal to all federal, state and local government web resources and services.